Regional Weather Roundup
Issued by NWS Memphis, TN

Home | Current Version | Previous Version | Text Only | Print | Product List | Glossary On
Versions: 1 2 3 4 5 6 7 8 9 10 11 12 13 14 15 16 17 18 19 20 21 22 23 24 25 26 27 28 29 30 31 32 33 34 35 36 37 38 39 40 41 42 43 44 45 46 47 48 49 50
000
ASUS44 KMEG 210710
RWRMEG
MEMPHIS CWA HOURLY WEATHER ROUNDUP
NATIONAL WEATHER SERVICE MEMPHIS TN
200 AM CDT FRI JUL 21 2017

...WEST TENNESSEE...

CITY           SKY/WX    TMP DP  RH WIND       PRES   REMARKS
MEMPHIS INTL   CLEAR     82  77  84 CALM      30.02S HX  90
JACKSON        CLEAR     75  73  93 S3        30.02S
COVINGTON      CLEAR     75  73  94 CALM      30.01S
SOMERVILLE       N/A     77  75  94 CALM      30.01F
BOLIVAR        CLEAR     75  73  94 CALM      30.02S
SELMER         CLEAR     75  73  94 CALM      30.03S
SAVANNAH       CLEAR     75  73  94 CALM      30.02S
UNION CITY     CLEAR     77  75  94 S3        30.00S
PARIS          CLEAR     73  73 100 CALM      30.01S
HUNTINGDON     CLEAR     77  75  94 CALM      30.01S FOG


...EASTERN ARKANSAS...

CITY           SKY/WX    TMP DP  RH WIND       PRES   REMARKS
JONESBORO      CLEAR     83  77  82 SW8       29.99F HX  92
WEST MEMPHIS   CLEAR     78  76  93 S3        30.00S
BATESVILLE     CLEAR     79  73  83 W3        30.00F
WALNUT RIDGE   CLEAR     81  75  83 S5        29.99F
BLYTHEVILLE    PTCLDY    81  78  91 S5        30.00S
SEARCY         CLEAR     79  79 100 SW3       30.02F
STUTTGART      CLEAR     81  66  61 S6        30.02F
PINE BLUFF     CLEAR     79  76  90 SW3       30.01F
MONTICELLO     CLEAR     79  75  87 CALM      30.02F


...NORTH MISSISSIPPI...

CITY           SKY/WX    TMP DP  RH WIND       PRES   REMARKS
TUPELO         PTCLDY    80  75  84 CALM      30.01F
OXFORD         PTCLDY    73  72  94 CALM      30.04F
BATESVILLE     CLEAR     75  73  94 CALM      30.02F FOG
TUNICA           N/A     77  73  88 CALM      30.02S
CLARKSDALE       N/A     79  79 100 CALM      30.01F
CORINTH        FOG       77  75  94 CALM      30.02F VSB 1/4
GREENWOOD      PTCLDY    77  76  96 CALM      30.01F
COLUMBUS       PTCLDY    78  78 100 CALM      30.01S
STARKVILLE       N/A     73  73 100 CALM      30.03S FOG
GOLDEN TRIANGL PTCLDY    77  70  78 CALM        N/A


...SOUTHEAST MISSOURI...

CITY           SKY/WX    TMP DP  RH WIND       PRES   REMARKS
KENNETT        PTCLDY    81  79  94 CALM      29.98S
MALDEN         CLEAR     81  77  89 S5        30.00F
WEST PLAINS    CLEAR     79  74  84 SW6       30.05F
POPLAR BLUFF   CLEAR     81  77  88 CALM      29.99S
CAPE GIRARDEAU CLEAR     77  74  90 CALM      29.99F


...NORTHWEST ALABAMA...

CITY           SKY/WX    TMP DP  RH WIND       PRES   REMARKS
MUSCLE SHOALS  CLEAR     77  73  87 CALM      30.05S


...MIDDLE TENNESSEE...

CITY           SKY/WX    TMP DP  RH WIND       PRES   REMARKS
NASHVILLE      MOCLDY    76  73  91 S3        30.04F
CLARKSVILLE    FOG       74  73  97 CALM      30.02F VSB 1/2
COLUMBIA       CLEAR     75  75 100 CALM      30.02F


...WESTERN KENTUCKY...

CITY           SKY/WX    TMP DP  RH WIND       PRES   REMARKS
PADUCAH        CLEAR     78  73  84 W3        29.99F
FORT CAMPBELL  CLEAR     78  75  92 CALM      30.02S


...CENTRAL ARKANSAS...

CITY           SKY/WX    TMP DP  RH WIND       PRES   REMARKS
LITTLE ROCK    CLEAR     81  77  88 SW5       30.01F


SKY/WX REPORTED AS FAIR MEANS FEW OR NO CLOUDS BELOW
12 THOUSAND FEET.





USA.gov is the U.S. government's official web portal to all federal, state and local government web resources and services.